Location: Guadanolo
(41.9167°N, 12.9333°E)
Time: 06:49:47
(UTC+00:00)

Okean 1-7 Rocket - Pass Details

Date: 16 September 2019
Orbit: 617 x 649 km, 82.5° (Epoch: 15 October)

Event Time Altitude Azimuth Distance (km) Brightness Sun altitude
Rises 18:53:42 0° 358° (N) 2,908 7.3 -18.4°
Reaches altitude 10° 18:56:01 10° 4° (N) 2,001 6.4 -18.8°
Maximum altitude 19:00:17 47° 78° (ENE) 838 3.8 -19.5°
Enters shadow 19:00:41 45° 95° (E) 854 3.8 -19.6°
